This demonstration page uses our WeatherBlox Daily Observations layout. Learn more.

Left ArrowRight Arrow

Hourly Observations for February 5, 2016

Temp ( °F °C ) Dew Point ( °F °C ) Humidity (%) Winds ( mph kmh ) Pressure ( in mb ) Visibility ( mi km ) Precip ( " mm )
12:14 am 00:14 Clear 23 -5 18 -8 80 80 SW 3 6 30.39 1029 10 16 N/A
12:35 am 00:35 Clear 23 -5 18 -8 80 80 N N/A 30.39 1029 10 16 N/A
12:54 am 00:54 Clear 21 -6 18 -8 86 86 N N/A 30.39 1029 10 16 N/A
1:14 am 01:14 Clear 21 -6 19 -7 93 93 N N/A 30.39 1029 10 16 N/A
1:34 am 01:34 Clear 23 -5 18 -8 80 80 N N/A 30.39 1029 10 16 N/A
1:54 am 01:54 Clear 21 -6 19 -7 93 93 N N/A 30.39 1029 10 16 N/A
2:15 am 02:15 Clear 21 -6 18 -8 86 86 N N/A 30.39 1029 10 16 N/A
2:34 am 02:34 Clear 21 -6 18 -8 86 86 S 3 6 30.39 1029 10 16 N/A
2:54 am 02:54 Clear 21 -6 18 -8 86 86 S 3 6 30.39 1029 10 16 N/A
3:15 am 03:15 Clear 21 -6 19 -7 93 93 S 3 6 30.39 1029 10 16 N/A
3:34 am 03:34 Clear 21 -6 18 -8 86 86 S 5 7 30.39 1029 10 16 N/A
3:54 am 03:54 Clear 21 -6 18 -8 86 86 S 3 6 30.39 1029 10 16 N/A
4:15 am 04:15 Clear 21 -6 18 -8 86 86 S 5 7 30.39 1029 10 16 N/A
4:34 am 04:34 Clear 21 -6 18 -8 86 86 S 6 9 30.39 1029 10 16 N/A
4:54 am 04:54 Clear 21 -6 18 -8 86 86 S 3 6 30.39 1029 10 16 N/A
5:14 am 05:14 Clear 21 -6 18 -8 86 86 S 3 6 30.39 1029 10 16 N/A
5:34 am 05:34 Clear 21 -6 18 -8 86 86 S 6 9 30.42 1030 10 16 N/A
5:55 am 05:55 Clear 21 -6 18 -8 86 86 S 6 9 30.42 1030 10 16 N/A
6:14 am 06:14 Clear 21 -6 18 -8 86 86 S 5 7 30.42 1030 10 16 N/A
6:34 am 06:34 Clear 21 -6 18 -8 86 86 S 5 7 30.42 1030 10 16 N/A
6:54 am 06:54 Clear 21 -6 18 -8 86 86 SSE 7 11 30.42 1030 10 16 N/A
7:14 am 07:14 Clear 23 -5 18 -8 80 80 S 7 11 30.42 1030 10 16 N/A
7:35 am 07:35 Clear 21 -6 18 -8 86 86 SSE 6 9 30.42 1030 10 16 N/A
7:54 am 07:54 Sunny 23 -5 18 -8 80 80 SSE 6 9 30.42 1030 10 16 N/A
8:14 am 08:14 Sunny 23 -5 18 -8 80 80 S 8 13 30.42 1030 10 16 N/A
8:35 am 08:35 Sunny 23 -5 19 -7 86 86 S 8 13 30.45 1031 10 16 N/A
8:54 am 08:54 Sunny 25 -4 19 -7 80 80 S 8 13 30.45 1031 10 16 N/A
9:14 am 09:14 Sunny 27 -3 19 -7 74 74 S 7 11 30.45 1031 10 16 N/A
9:35 am 09:35 Sunny 28 -2 21 -6 74 74 S 9 15 30.42 1030 10 16 N/A
9:54 am 09:54 Sunny 28 -2 21 -6 74 74 S 9 15 30.42 1030 10 16 N/A
10:14 am 10:14 Sunny 30 -1 23 -5 75 75 S 8 13 30.42 1030 10 16 N/A
10:35 am 10:35 Sunny 32 undefined 21 -6 64 64 SSW 10 17 30.42 1030 10 16 N/A
10:54 am 10:54 Sunny 32 undefined 23 -5 69 69 SSW 12 19 30.42 1030 10 16 N/A
11:14 am 11:14 Sunny 34 1 23 -5 65 65 SSW 10 17 30.42 1030 10 16 N/A
11:35 am 11:35 Sunny 34 1 23 -5 65 65 SSW 10 17 30.42 1030 10 16 N/A
11:54 am 11:54 Sunny 36 2 23 -5 60 60 S 7 11 30.39 1029 10 16 N/A
12:14 pm 12:14 Sunny 36 2 23 -5 60 60 S 8 13 30.39 1029 10 16 N/A
12:35 pm 12:35 Sunny 37 3 25 -4 60 60 S 9 15 30.36 1028 10 16 N/A
12:54 pm 12:54 Sunny 37 3 25 -4 60 60 SW 9 15 30.36 1028 10 16 N/A
1:14 pm 13:14 Sunny 39 4 23 -5 52 52 SSW 12 19 30.36 1028 10 16 N/A
1:35 pm 13:35 Sunny 39 4 23 -5 52 52 SSW 8 13 30.36 1028 10 16 N/A
1:54 pm 13:54 Sunny 41 5 25 -4 53 53 SSW 12 19 30.36 1028 10 16 N/A
2:14 pm 14:14 Sunny 41 5 23 -5 49 49 W 14 22 30.36 1028 10 16 N/A
2:35 pm 14:35 Sunny 41 5 23 -5 49 49 WSW 14 22 30.33 1027 10 16 N/A
2:54 pm 14:54 Sunny 41 5 23 -5 49 49 W 12 19 30.33 1027 10 16 N/A
3:14 pm 15:14 Sunny 39 4 23 -5 52 52 W 10 17 30.33 1027 10 16 N/A
3:35 pm 15:35 Sunny 39 4 23 -5 52 52 W 10 17 30.36 1028 10 16 N/A
3:54 pm 15:54 Sunny 39 4 25 -4 56 56 W 14 22 30.36 1028 10 16 N/A
4:15 pm 16:15 Sunny 39 4 23 -5 52 52 W 13 20 30.36 1028 10 16 N/A
4:35 pm 16:35 Sunny 39 4 23 -5 52 52 WNW 12 19 30.36 1028 10 16 N/A
4:54 pm 16:54 Sunny 37 3 27 -3 65 65 NNW 12 19 30.36 1028 10 16 N/A
5:15 pm 17:15 Sunny 36 2 27 -3 70 70 NW 10 17 30.36 1028 10 16 N/A
5:35 pm 17:35 Sunny 34 1 25 -4 70 70 WNW 9 15 30.36 1028 10 16 N/A
5:54 pm 17:54 Sunny 34 1 25 -4 70 70 NW 8 13 30.39 1029 10 16 N/A
6:15 pm 18:15 Clear 32 undefined 25 -4 75 75 WNW 8 13 30.39 1029 10 16 N/A
6:35 pm 18:35 Clear 30 -1 25 -4 80 80 NNW 10 17 30.39 1029 10 16 N/A
6:54 pm 18:54 Clear 30 -1 25 -4 80 80 NNW 9 15 30.39 1029 10 16 N/A
7:15 pm 19:15 Clear 28 -2 23 -5 80 80 NW 8 13 30.39 1029 10 16 N/A
7:35 pm 19:35 Clear 28 -2 23 -5 80 80 NW 7 11 30.42 1030 10 16 N/A
7:54 pm 19:54 Clear 27 -3 23 -5 86 86 NW 6 9 30.42 1030 10 16 N/A
8:15 pm 20:15 Clear 27 -3 23 -5 86 86 NW 6 9 30.42 1030 10 16 N/A
8:35 pm 20:35 Clear 27 -3 21 -6 80 80 NW 3 6 30.42 1030 10 16 N/A
8:54 pm 20:54 Clear 27 -3 21 -6 80 80 NW 3 6 30.42 1030 10 16 N/A
9:15 pm 21:15 Clear 27 -3 21 -6 80 80 N N/A 30.39 1029 10 16 N/A
9:35 pm 21:35 Clear 25 -4 23 -5 93 93 N N/A 30.39 1029 10 16 N/A
9:54 pm 21:54 Clear 25 -4 23 -5 93 93 N N/A 30.39 1029 7 11 N/A
10:15 pm 22:15 Clear 25 -4 23 -5 93 93 N N/A 30.39 1029 7 11 N/A
10:35 pm 22:35 Clear 25 -4 23 -5 93 93 N N/A 30.39 1029 7 11 N/A
10:54 pm 22:54 Clear 25 -4 23 -5 93 93 WSW 3 6 30.39 1029 10 16 N/A
11:15 pm 23:15 Clear 23 -5 21 -6 93 93 W 3 6 30.39 1029 10 16 N/A
11:35 pm 23:35 Clear 23 -5 21 -6 93 93 W 3 6 30.39 1029 7 11 N/A
11:54 pm 23:54 Clear 23 -5 21 -6 93 93 W 3 6 30.39 1029 7 11 N/A

Powered by AerisWeather